THY8RW LTBZ-LTFM

Flight info

Callsign THY8RW
Flight time 0h 36m
Altitude 28000
Route KARGI1E/13 KARGI UT30 OTSIX M855 SISPI
Aircraft B738/M-SDE2E3FGHIRWXY/LB1

Departure

Time 2026-05-04 12:55
Airport Zafer Airport (LTBZ)

Arrival

Time 2026-05-04 13:32
Airport İstanbul Airport (LTFM)
Time Latitude Longitude Altitude Speed Heading
2026-05-04 12:15 39.11683 30.13114 3339 ft 0 kts 83°
2026-05-04 12:47 39.11682 30.13119 3339 ft 2 kts 93°
2026-05-04 12:47 39.11671 30.13125 3350 ft 2 kts 189°
2026-05-04 12:48 39.11656 30.13103 3350 ft 5 kts 229°
2026-05-04 12:48 39.11619 30.13105 3349 ft 7 kts 146°
2026-05-04 12:48 39.11566 30.13103 3339 ft 9 kts 215°
2026-05-04 12:48 39.11522 30.13055 3339 ft 8 kts 221°
2026-05-04 12:49 39.11479 30.13007 3347 ft 8 kts 221°
2026-05-04 12:49 39.11438 30.12961 3348 ft 8 kts 221°
2026-05-04 12:49 39.11397 30.12916 3350 ft 8 kts 221°
2026-05-04 12:49 39.11359 30.12873 3339 ft 7 kts 221°
2026-05-04 12:50 39.11321 30.12832 3339 ft 7 kts 216°
2026-05-04 12:50 39.11274 30.12837 3338 ft 9 kts 142°
2026-05-04 12:50 39.11222 30.12908 3342 ft 13 kts 131°
2026-05-04 12:50 39.11156 30.13004 3347 ft 15 kts 131°
2026-05-04 12:51 39.11082 30.13114 3347 ft 17 kts 131°
2026-05-04 12:51 39.11000 30.13234 3343 ft 18 kts 131°
2026-05-04 12:51 39.10919 30.13354 3341 ft 17 kts 131°
2026-05-04 12:51 39.10841 30.13470 3345 ft 17 kts 131°
2026-05-04 12:52 39.10765 30.13581 3340 ft 16 kts 132°
2026-05-04 12:52 39.10692 30.13688 3347 ft 16 kts 133°
2026-05-04 12:52 39.10621 30.13789 3347 ft 15 kts 131°
2026-05-04 12:52 39.10548 30.13895 3344 ft 18 kts 131°
2026-05-04 12:53 39.10461 30.14023 3350 ft 20 kts 131°
2026-05-04 12:53 39.10372 30.14153 3344 ft 19 kts 130°
2026-05-04 12:53 39.10326 30.14244 3348 ft 8 kts 102°
2026-05-04 12:53 39.10325 30.14316 3348 ft 8 kts 105°
2026-05-04 12:54 39.10280 30.14339 3341 ft 8 kts 202°
2026-05-04 12:54 39.10283 30.14284 3346 ft 8 kts 315°
2026-05-04 12:54 39.10300 30.14259 3340 ft 0 kts 311°
2026-05-04 12:55 39.10469 30.14013 3349 ft 74 kts 311°
2026-05-04 12:55 39.10963 30.13286 3343 ft 139 kts 312°
2026-05-04 12:55 39.11692 30.12237 3714 ft 163 kts 310°
2026-05-04 12:55 39.12378 30.11089 4593 ft 162 kts 305°
2026-05-04 12:56 39.12988 30.09854 5359 ft 169 kts 303°
2026-05-04 12:56 39.13669 30.08475 5631 ft 195 kts 305°
2026-05-04 12:56 39.14477 30.06986 6018 ft 207 kts 305°
2026-05-04 12:56 39.15291 30.05469 6598 ft 213 kts 305°
2026-05-04 12:57 39.16136 30.03871 7421 ft 211 kts 305°
2026-05-04 12:57 39.16930 30.02290 8185 ft 209 kts 305°
2026-05-04 12:57 39.17717 30.00709 8819 ft 215 kts 304°
2026-05-04 12:57 39.18511 29.99100 9619 ft 211 kts 305°
2026-05-04 12:58 39.19326 29.97490 10270 ft 217 kts 306°
2026-05-04 12:58 39.20156 29.95843 10977 ft 220 kts 307°
2026-05-04 12:58 39.21171 29.94444 11671 ft 217 kts 330°
2026-05-04 12:58 39.22580 29.93742 12377 ft 220 kts 350°
2026-05-04 12:59 39.24184 29.93824 12673 ft 246 kts 13°
2026-05-04 12:59 39.25850 29.94658 12880 ft 273 kts 21°
2026-05-04 12:59 39.27642 29.95773 13068 ft 299 kts 23°
2026-05-04 12:59 39.29580 29.97021 13248 ft 323 kts 23°
2026-05-04 13:00 39.31669 29.98363 13462 ft 344 kts 23°
2026-05-04 13:00 39.33856 29.99751 13925 ft 355 kts 23°
2026-05-04 13:00 39.36096 30.01159 14605 ft 359 kts 23°
2026-05-04 13:00 39.38366 30.02574 15201 ft 366 kts 23°
2026-05-04 13:01 39.40684 30.04005 15875 ft 370 kts 21°
2026-05-04 13:01 39.43133 30.04846 16545 ft 371 kts
2026-05-04 13:01 39.45707 30.04701 17219 ft 372 kts 349°
2026-05-04 13:01 39.48264 30.03999 17830 ft 378 kts 347°
2026-05-04 13:02 39.50845 30.03202 18387 ft 384 kts 346°
2026-05-04 13:02 39.53451 30.02382 19034 ft 386 kts 347°
2026-05-04 13:02 39.56072 30.01571 19679 ft 388 kts 347°
2026-05-04 13:02 39.58708 30.00773 20328 ft 390 kts 348°
2026-05-04 13:03 39.61365 29.99981 20904 ft 393 kts 348°
2026-05-04 13:03 39.64046 29.99188 21461 ft 396 kts 349°
2026-05-04 13:03 39.66738 29.98395 22022 ft 398 kts 349°
2026-05-04 13:03 39.69447 29.97597 22536 ft 401 kts 349°
2026-05-04 13:04 39.72180 29.96791 23025 ft 404 kts 349°
2026-05-04 13:04 39.74926 29.95977 23468 ft 408 kts 349°
2026-05-04 13:04 39.76746 29.95319 23772 ft 411 kts 344°
2026-05-04 13:04 39.79414 29.93921 23939 ft 417 kts 340°
2026-05-04 13:05 39.82077 29.92380 23960 ft 419 kts 339°
2026-05-04 13:05 39.85593 29.90338 23963 ft 416 kts 340°
2026-05-04 13:05 39.88229 29.88836 23754 ft 407 kts 340°
2026-05-04 13:05 39.89965 29.87862 23569 ft 398 kts 341°
2026-05-04 13:06 39.92577 29.86966 23286 ft 380 kts 356°
2026-05-04 13:06 39.95164 29.86847 23064 ft 366 kts
2026-05-04 13:06 39.97684 29.86869 22806 ft 358 kts
2026-05-04 13:06 40.00153 29.86911 22548 ft 351 kts
2026-05-04 13:07 40.02592 29.86944 22302 ft 351 kts
2026-05-04 13:07 40.05030 29.86963 22049 ft 350 kts
2026-05-04 13:07 40.07464 29.86970 21805 ft 350 kts
2026-05-04 13:07 40.09871 29.86971 21564 ft 350 kts
2026-05-04 13:08 40.12317 29.86967 21314 ft 351 kts
2026-05-04 13:08 40.14761 29.86963 21067 ft 352 kts
2026-05-04 13:08 40.17224 29.86959 21016 ft 355 kts
2026-05-04 13:08 40.19690 29.86880 20895 ft 354 kts 354°
2026-05-04 13:09 40.22045 29.85987 20629 ft 355 kts 337°
2026-05-04 13:09 40.24198 29.84370 19999 ft 362 kts 327°
2026-05-04 13:09 40.26136 29.82269 19515 ft 362 kts 320°
2026-05-04 13:09 40.27970 29.80022 19038 ft 359 kts 319°
2026-05-04 13:10 40.29770 29.77771 18573 ft 356 kts 319°
2026-05-04 13:10 40.31551 29.75537 18116 ft 353 kts 319°
2026-05-04 13:10 40.33321 29.73324 17670 ft 350 kts 319°
2026-05-04 13:10 40.35077 29.71134 17247 ft 347 kts 319°
2026-05-04 13:11 40.36823 29.68963 16795 ft 344 kts 319°
2026-05-04 13:11 40.38555 29.66813 16353 ft 342 kts 319°
2026-05-04 13:11 40.40273 29.64681 15907 ft 339 kts 319°
2026-05-04 13:11 40.41979 29.62565 15478 ft 335 kts 319°
2026-05-04 13:12 40.43665 29.60473 15055 ft 332 kts 319°
2026-05-04 13:12 40.45333 29.58405 14632 ft 328 kts 319°
2026-05-04 13:12 40.46961 29.56384 14227 ft 324 kts 320°
2026-05-04 13:12 40.48585 29.54370 13830 ft 319 kts 320°
2026-05-04 13:13 40.50189 29.52373 13423 ft 315 kts 320°
2026-05-04 13:13 40.51773 29.50402 13022 ft 311 kts 320°
2026-05-04 13:13 40.53340 29.48453 12641 ft 308 kts 320°
2026-05-04 13:13 40.54880 29.46530 12271 ft 305 kts 320°
2026-05-04 13:14 40.56606 29.45021 11877 ft 295 kts 341°
2026-05-04 13:14 40.58608 29.44665 11615 ft 291 kts
2026-05-04 13:14 40.60578 29.45260 11418 ft 290 kts 14°
2026-05-04 13:14 40.62515 29.46070 11199 ft 294 kts 15°
2026-05-04 13:15 40.64465 29.46923 11056 ft 298 kts 15°
2026-05-04 13:15 40.66444 29.47804 11010 ft 300 kts 16°
2026-05-04 13:15 40.68413 29.48685 11015 ft 298 kts 16°
2026-05-04 13:15 40.70377 29.49564 11000 ft 298 kts 16°
2026-05-04 13:16 40.72338 29.50439 11004 ft 297 kts 16°
2026-05-04 13:16 40.74328 29.51174 10793 ft 295 kts
2026-05-04 13:16 40.76260 29.50685 10523 ft 288 kts 333°
2026-05-04 13:16 40.77785 29.49046 10414 ft 280 kts 316°
2026-05-04 13:17 40.78949 29.47026 10257 ft 275 kts 303°
2026-05-04 13:17 40.79725 29.44732 10145 ft 272 kts 295°
2026-05-04 13:17 40.80354 29.42390 10008 ft 268 kts 294°
2026-05-04 13:17 40.80944 29.40074 9742 ft 265 kts 293°
2026-05-04 13:18 40.81528 29.37783 9446 ft 263 kts 293°
2026-05-04 13:18 40.82114 29.35501 9157 ft 261 kts 293°
2026-05-04 13:18 40.82701 29.33235 8869 ft 260 kts 293°
2026-05-04 13:18 40.83290 29.30979 8572 ft 260 kts 293°
2026-05-04 13:19 40.83880 29.28722 8276 ft 259 kts 293°
2026-05-04 13:19 40.84466 29.26479 7982 ft 258 kts 292°
2026-05-04 13:19 40.85054 29.24250 7686 ft 256 kts 293°
2026-05-04 13:19 40.85634 29.22037 7396 ft 256 kts 293°
2026-05-04 13:20 40.86224 29.19792 7109 ft 260 kts 292°
2026-05-04 13:20 40.86810 29.17558 6809 ft 262 kts 292°
2026-05-04 13:20 40.87406 29.15283 6497 ft 261 kts 292°
2026-05-04 13:20 40.87999 29.13022 6192 ft 260 kts 292°
2026-05-04 13:21 40.88590 29.10764 5895 ft 258 kts 292°
2026-05-04 13:21 40.89166 29.08558 5776 ft 250 kts 292°
2026-05-04 13:21 40.89736 29.06382 5657 ft 251 kts 292°
2026-05-04 13:21 40.90306 29.04201 5542 ft 253 kts 292°
2026-05-04 13:22 40.90885 29.01986 5417 ft 256 kts 292°
2026-05-04 13:22 40.91357 28.99692 5177 ft 265 kts 282°
2026-05-04 13:22 40.91564 28.97263 4890 ft 266 kts 279°
2026-05-04 13:22 40.91736 28.94835 4594 ft 264 kts 279°
2026-05-04 13:23 40.91922 28.92430 4301 ft 262 kts 280°
2026-05-04 13:23 40.92118 28.90046 4027 ft 259 kts 280°
2026-05-04 13:23 40.92317 28.87698 3949 ft 257 kts 280°
2026-05-04 13:23 40.92519 28.85336 3921 ft 259 kts 280°
2026-05-04 13:24 40.92723 28.82981 3915 ft 257 kts 280°
2026-05-04 13:24 40.93056 28.80708 3901 ft 252 kts 297°
2026-05-04 13:24 40.94060 28.78860 3923 ft 248 kts 321°
2026-05-04 13:25 40.97016 28.76586 3906 ft 244 kts 348°
2026-05-04 13:25 40.98649 28.76287 3913 ft 231 kts 355°
2026-05-04 13:25 41.00213 28.76174 3902 ft 219 kts 358°
2026-05-04 13:25 41.01703 28.76130 3900 ft 207 kts 358°
2026-05-04 13:26 41.03109 28.76107 3905 ft 199 kts 358°
2026-05-04 13:26 41.04480 28.76080 3924 ft 191 kts 359°
2026-05-04 13:26 41.05762 28.76057 3911 ft 178 kts 358°
2026-05-04 13:26 41.06985 28.76033 3922 ft 174 kts 358°
2026-05-04 13:27 41.08198 28.76011 3792 ft 180 kts 358°
2026-05-04 13:27 41.09454 28.75995 3563 ft 179 kts 358°
2026-05-04 13:27 41.10679 28.75970 3347 ft 174 kts 358°
2026-05-04 13:27 41.11879 28.75944 3115 ft 170 kts 359°
2026-05-04 13:28 41.13051 28.75923 2884 ft 165 kts 359°
2026-05-04 13:28 41.14187 28.75899 2661 ft 162 kts 359°
2026-05-04 13:28 41.15298 28.75877 2458 ft 158 kts 359°
2026-05-04 13:28 41.16374 28.75857 2240 ft 149 kts 358°
2026-05-04 13:29 41.17362 28.75839 2103 ft 135 kts 357°
2026-05-04 13:29 41.18289 28.75819 1892 ft 132 kts 358°
2026-05-04 13:29 41.19227 28.75803 1700 ft 136 kts 358°
2026-05-04 13:29 41.20158 28.75784 1534 ft 134 kts 358°
2026-05-04 13:30 41.21086 28.75767 1359 ft 132 kts 358°
2026-05-04 13:30 41.22009 28.75749 1183 ft 132 kts 358°
2026-05-04 13:30 41.22923 28.75735 1001 ft 132 kts 358°
2026-05-04 13:30 41.23854 28.75715 809 ft 134 kts 358°
2026-05-04 13:31 41.24796 28.75699 651 ft 138 kts 354°
2026-05-04 13:31 41.25762 28.75677 448 ft 139 kts 356°
2026-05-04 13:31 41.26720 28.75664 310 ft 132 kts 356°
2026-05-04 13:31 41.27447 28.75642 290 ft 73 kts
2026-05-04 13:32 41.27794 28.75644 277 ft 30 kts 359°
2026-05-04 13:32 41.27989 28.75614 267 ft 23 kts 343°
2026-05-04 13:32 41.28092 28.75550 267 ft 11 kts 329°
2026-05-04 13:32 41.28149 28.75503 265 ft 10 kts 321°
2026-05-04 13:33 41.28174 28.75418 264 ft 10 kts 257°
2026-05-04 13:33 41.28124 28.75361 266 ft 10 kts 193°
2026-05-04 13:33 41.28057 28.75355 269 ft 10 kts 181°
2026-05-04 13:33 41.27991 28.75356 272 ft 9 kts 180°
2026-05-04 13:34 41.27927 28.75356 276 ft 9 kts 180°
2026-05-04 13:34 41.27864 28.75357 279 ft 9 kts 180°
2026-05-04 13:34 41.27803 28.75357 282 ft 9 kts 178°
2026-05-04 13:34 41.27744 28.75360 285 ft 8 kts 179°
2026-05-04 13:35 41.27687 28.75361 288 ft 8 kts 180°
2026-05-04 13:35 41.27578 28.75361 292 ft 8 kts 180°
2026-05-04 13:35 41.27526 28.75361 294 ft 7 kts 180°
2026-05-04 13:36 41.27476 28.75363 295 ft 8 kts 177°
2026-05-04 13:36 41.27411 28.75365 297 ft 11 kts 178°
2026-05-04 13:36 41.27324 28.75365 299 ft 14 kts 180°
2026-05-04 13:36 41.27230 28.75366 301 ft 13 kts 179°
2026-05-04 13:37 41.27140 28.75367 303 ft 11 kts 179°
2026-05-04 13:37 41.27083 28.75351 304 ft 8 kts 219°
2026-05-04 13:37 41.27058 28.75283 304 ft 8 kts 239°
2026-05-04 13:37 41.27028 28.75256 305 ft 8 kts 194°
2026-05-04 13:38 41.26956 28.75253 306 ft 8 kts 179°
2026-05-04 13:38 41.26903 28.75254 307 ft 7 kts 179°
2026-05-04 13:38 41.26853 28.75255 307 ft 7 kts 179°
2026-05-04 13:38 41.26793 28.75255 308 ft 10 kts 179°
2026-05-04 13:39 41.26712 28.75257 309 ft 12 kts 179°
2026-05-04 13:39 41.26631 28.75258 310 ft 12 kts 179°
2026-05-04 13:39 41.26550 28.75259 311 ft 11 kts 179°
2026-05-04 13:39 41.26472 28.75260 312 ft 11 kts 179°
2026-05-04 13:40 41.26396 28.75263 312 ft 11 kts 180°
2026-05-04 13:40 41.26322 28.75263 313 ft 10 kts 180°
2026-05-04 13:40 41.26254 28.75244 313 ft 10 kts 223°
2026-05-04 13:40 41.26240 28.75154 312 ft 10 kts 269°
2026-05-04 13:41 41.26239 28.75061 312 ft 10 kts 269°
2026-05-04 13:41 41.26225 28.74973 312 ft 10 kts 252°
2026-05-04 13:41 41.26205 28.74896 312 ft 6 kts 251°
2026-05-04 13:42 41.26190 28.74838 312 ft 1 kts 251°
2026-05-04 13:42 41.26188 28.74833 312 ft 0 kts 251°